Vorticity
nan nan nan nan nan nan nan nan nan nan nan nan nan nan nan nan nan nan nan nan nan nan nan nan nan nan nan nan nan nan nan nan nan nan nan nan nan nan nan nan nan nan nan
nan 9 8 8 10 9 9 8 9 9 8 9 8 9 9 9 9 8 8 7 8 7 7 7 7 8 7 6 9 9 9 8 10 7 9 9 10 10 7 7 6 7 nan
nan 8 8 9 8 9 10 9 9 9 9 9 8 9 9 9 9 8 8 8 8 8 8 8 8 7 6 8 9 8 8 9 9 6 10 8 10 12 9 6 9 9 nan
nan 8 9 10 9 9 9 10 9 9 9 9 10 9 9 9 9 9 9 8 8 8 9 9 9 8 8 8 8 7 8 10 8 9 9 9 9 8 6 9 12 9 nan
nan 11 9 10 10 10 10 10 10 9 9 10 9 9 9 8 9 12 9 9 9 9 9 10 9 11 10 8 8 10 9 7 7 9 8 9 9 9 7 7 7 9 nan
nan 11 10 12 10 10 10 11 10 9 9 9 9 10 6 8 14 11 8 8 10 10 10 9 11 11 10 9 4 8 12 7 6 8 8 7 8 9 8 10 8 9 nan
nan 11 11 10 10 11 10 10 10 10 9 10 9 9 9 9 15 13 7 4 9 10 9 9 9 9 12 7 8 6 6 7 7 8 5 8 12 9 9 11 8 9 nan
nan 10 11 10 10 11 11 9 9 10 10 10 11 9 7 10 13 13 11 5 6 10 11 9 8 10 12 14 9 9 8 8 9 7 11 12 14 15 15 6 9 10 nan
nan 11 10 11 11 10 10 9 10 10 10 9 10 11 10 11 14 12 8 8 8 9 10 10 10 9 16 15 8 11 11 9 11 8 5 14 17 15 12 11 9 7 nan
nan 10 11 11 11 10 11 11 10 11 10 11 11 10 10 12 12 13 4 4 10 11 11 13 12 13 16 11 8 9 10 12 13 13 6 4 5 6 8 9 8 10 nan
nan 12 11 11 10 11 11 11 11 10 11 9 11 13 13 12 11 17 5 -3 7 10 10 11 17 20 12 12 7 8 10 10 12 10 13 9 9 7 8 11 7 8 nan
nan 13 11 11 11 11 11 10 10 10 9 12 11 9 13 14 14 17 13 3 -1 5 9 9 22 21 13 10 10 7 12 13 11 10 10 10 11 11 11 13 11 9 nan
nan 12 12 12 10 11 13 10 10 10 10 10 8 10 12 11 17 18 16 14 1 -1 13 21 23 16 7 7 10 13 9 10 12 11 9 11 11 12 13 11 11 11 nan
nan 11 12 12 11 11 9 10 10 10 10 10 9 11 9 9 14 15 17 18 16 5 14 23 17 12 8 10 9 9 8 11 8 9 10 11 12 13 10 9 9 9 nan
nan 12 11 12 13 9 9 10 15 15 16 14 10 9 7 20 23 20 15 18 24 19 9 9 10 11 13 9 10 9 13 10 11 11 10 10 11 10 10 9 9 8 nan
nan 13 12 12 11 10 11 4 1 10 17 19 21 18 15 23 31 19 14 17 18 10 3 10 9 8 7 9 13 9 10 13 12 11 11 10 10 10 11 9 9 9 nan
nan 13 13 16 15 17 12 13 12 7 0 -1 16 26 28 19 10 11 17 16 3 -6 5 11 9 8 9 10 7 9 11 12 10 10 11 11 9 11 11 8 9 9 nan
nan 12 14 13 13 15 17 16 17 12 8 5 8 18 28 33 25 18 8 -4 -8 7 14 7 7 10 13 12 11 10 13 12 11 11 10 11 11 11 9 9 10 11 nan
nan 11 13 11 13 13 12 14 14 15 16 17 9 8 12 12 8 12 13 15 16 8 6 9 12 14 12 11 12 12 10 13 12 10 11 11 10 9 9 11 6 10 nan
nan 9 9 11 9 10 13 12 10 10 10 10 10 9 8 5 7 7 6 4 9 19 19 13 15 15 12 9 13 14 10 12 11 10 11 10 10 10 10 11 11 10 nan
nan 10 12 11 8 12 13 11 10 9 8 8 6 8 16 15 10 9 13 10 9 13 16 17 14 11 9 13 12 12 13 9 11 10 10 11 10 9 11 11 11 10 nan
nan 12 14 13 10 9 9 12 13 10 9 14 14 11 11 10 12 12 12 10 12 15 15 13 11 11 14 13 12 12 12 11 10 11 11 10 10 10 12 11 11 11 nan
nan 11 10 13 13 13 10 10 14 14 14 14 16 17 13 11 13 13 13 12 13 13 14 15 14 13 13 13 13 12 11 11 12 11 10 10 10 12 11 11 11 10 nan
nan 13 14 9 12 16 13 12 13 14 15 12 13 16 14 12 13 13 15 17 15 12 13 13 14 14 11 12 13 14 16 14 10 14 11 10 10 12 10 12 12 11 nan
nan 11 12 12 16 15 11 11 14 15 13 9 10 14 16 16 13 9 10 14 13 13 13 11 14 14 14 11 9 9 10 17 16 14 13 13 13 10 9 10 11 11 nan
nan nan nan nan nan nan nan nan nan nan nan nan nan nan nan nan nan nan nan nan nan nan nan nan nan nan nan nan nan nan nan nan nan nan nan nan nan nan nan nan nan nan nan
CAPE
3062 3300 3261 2858 2913 3191 3492 3773 3840 3234 3654 3013 3097 2547 2445 2625 2952 3123 2813 2219 2029 1811 1040 644 968 807 118 90 107 63 40 11 0 0 0 272 347 292 30 117 166 134 106
2895 3458 3329 3107 3231 3003 3356 3496 3955 3839 3549 3551 3289 3047 2764 2499 2872 3143 2891 2226 2153 1968 1600 1086 885 689 810 913 232 930 404 355 58 220 208 116 587 428 584 626 172 51 43
2653 2362 2577 2681 2778 3342 3721 3588 3725 3905 4026 2811 3334 3979 3141 2825 3141 3140 2918 2753 2414 2172 1856 1591 1208 826 1072 477 453 367 286 254 405 155 70 263 60 296 532 600 485 277 100
1815 2113 2908 3113 3265 3287 3587 3712 3792 3949 4064 3886 3941 4077 3663 3116 2876 2960 2848 2821 2784 2419 2187 1856 1508 986 1250 941 491 699 626 357 538 307 177 110 252 346 303 158 207 354 90
2553 2074 2920 3338 3573 3566 3603 3831 3849 3990 3917 4033 4079 4075 4083 3164 2380 3445 3390 2880 3192 2812 2439 2177 1759 1308 644 839 597 1331 1575 738 277 438 400 226 243 182 331 216 125 92 371
2802 2835 3057 3580 3804 3786 3821 3947 4116 4075 4023 4122 4080 4136 4066 3048 1729 1393 2706 3248 3512 3288 3301 2743 2425 1082 634 349 346 471 1276 1730 1640 391 402 599 1107 579 256 243 44 229 90
2748 3169 3412 3840 3946 4072 4067 4156 4165 4118 4112 4183 4141 4188 4183 4087 1634 663 1149 2898 3297 3650 3704 2923 2319 1889 1239 1349 200 133 253 574 593 1537 1251 1322 988 934 903 571 590 329 293
3115 3269 3522 3714 3959 4106 4202 4133 4185 4206 4106 4166 4177 4237 4221 4090 1988 283 382 2832 3519 3842 3579 3356 3411 3065 2426 1636 1591 894 541 941 786 606 1067 1072 1564 986 858 667 582 611 481
3184 3410 3595 3663 3345 3581 4190 4235 3907 3630 3882 3796 3602 4297 4312 4162 1650 127 245 2431 2696 3806 3753 3452 3605 3520 2477 837 1748 1746 1210 1140 309 141 152 67 22 128 393 355 259 414 168
3130 2948 3472 3605 3758 3803 4166 4267 4126 3648 3559 3220 3372 4215 3754 4292 1640 37 187 2304 2610 2479 3667 3970 1841 2744 2142 209 1641 2465 1978 1756 1488 798 422 41 14 24 0 275 234 155 94
2287 2358 3217 3801 4035 4031 4360 4279 4053 3934 3508 3975 4075 4145 4291 3986 3857 0 0 2573 2666 2861 2630 3029 2969 746 402 5 422 1747 1520 1827 1421 1397 567 511 496 360 176 110 370 215 40
2594 2594 3577 3937 3053 2919 4330 4429 4322 4074 4169 4242 3970 3428 3771 4001 2608 123 0 363 1848 2862 2956 2741 2752 265 21 0 3 665 732 729 1024 545 611 420 466 285 216 211 379 150 0
2993 3615 3406 3413 3388 3808 4137 4000 3523 3983 3246 3577 3525 3164 3258 3239 4019 1134 0 0 66 1791 2728 2571 1906 0 0 1 1 47 35 404 478 519 267 448 225 219 403 103 29 31 14
3167 3371 3551 3720 3604 3512 3378 3501 3373 3342 3335 3104 3243 2916 3403 3648 3906 3698 324 0 0 84 181 52 0 0 0 0 1 1 94 110 484 512 262 315 316 94 43 3 1 0 0
3297 3334 3457 3385 3512 3721 3822 3415 3345 3672 3028 3293 3434 3526 3236 3596 3625 3307 287 4 97 74 0 2 2 2 2 2 6 4 139 313 236 298 247 160 62 21 8 4 1 2 7
2831 2683 2556 2582 3035 3201 3343 3592 1082 220 1 1 0 712 2951 1299 185 23 2 2 2 1 0 2 5 8 7 3 0 1 32 172 279 279 183 156 47 10 5 8 1 3 19
1866 2224 2233 1334 1782 2060 2637 2939 3112 974 0 0 2 2 201 1 3 2 2 1 1 0 0 0 0 0 0 1 5 1 1 139 367 298 118 75 44 20 2 22 11 13 10
750 122 1059 1152 1320 1378 1114 1225 1336 1517 1642 2188 0 0 1 2 1 2 1 1 0 0 9 12 7 0 3 7 11 9 17 114 206 131 65 38 27 7 29 9 22 10 2
1068 918 485 657 723 492 237 3 2 3 5 4 4 1 2 0 1 1 1 2 2 33 214 149 45 12 13 13 17 31 134 96 141 63 29 11 7 42 21 2 5 0 0
635 79 270 529 588 287 369 165 6 6 1 0 1 0 0 0 0 1 0 1 2 97 98 66 77 73 102 68 91 86 86 6 11 14 4 17 40 8 1 2 0 0 0
601 408 73 629 488 57 80 161 148 20 0 4 0 0 0 0 0 0 0 2 6 27 199 175 176 270 182 314 232 132 43 4 6 3 24 29 8 0 0 0 0 0 0
614 665 462 333 266 100 67 46 31 54 14 11 18 1 1 6 4 3 4 17 19 40 134 217 307 322 256 153 169 21 4 5 9 14 10 2 0 0 0 0 0 0 0
668 673 717 531 243 0 91 93 23 9 6 10 10 17 5 7 10 11 7 16 47 51 43 106 363 210 86 18 4 1 3 6 0 0 0 0 0 0 0 0 0 0 0
756 674 529 225 149 277 176 10 4 2 5 8 10 19 18 8 7 9 1 5 40 35 27 31 10 1 0 0 0 0 0 0 0 0 0 0 0 0 0 0 0 0 0
152 125 110 183 263 231 161 73 74 52 8 5 1 3 10 17 11 17 5 0 0 0 0 0 0 0 0 0 0 0 0 0 0 0 0 0 0 0 0 0 0 0 0
13 21 6 1 1 8 26 109 106 77 76 56 63 85 58 25 18 10 16 6 0 5 6 0 0 0 0 0 0 0 0 0 0 0 0 0 0 0 0 0 0 0 0